FW3223 Weather Reports


Display with metric or nautical units.
time (UTC)temp
F
wind
direction
speed
MPH
gust
MPH
rain 1hr
in
rain 24hr
in
rain mn
in
humidity
%
barometer
mb
20210804090135 70 14 6.0 15.0 0.00 0.00 0.00 62 1023.4
20210804084541 70 27 7.0 13.0 0.00 0.00 0.00 62 1023.5
20210804083127 70 355 5.0 11.0 0.00 0.00 0.00 63 1023.3
20210804081522 69 15 6.0 11.0 0.00 0.00 0.00 63 1023.1
20210804074932 69 26 6.0 11.0 0.00 0.00 0.00 65 1022.7
20210804073122 69 59 3.0 10.0 0.00 0.00 0.00 65 1022.7
20210804071808 68 71 2.0 11.0 0.00 0.00 0.00 66 1022.6
20210804070120 68 32 0.0 4.0 0.00 0.00 0.00 66 1022.4
20210804064622 68 18 2.0 9.0 0.00 0.00 0.00 66 1022.2
20210804063024 68 16 4.0 8.0 0.00 0.00 0.00 66 1022.0
20210804061526 68 171 1.0 3.0 0.00 0.00 0.00 66 1021.9
20210804054641 67 302 2.0 12.0 0.00 0.00 0.00 66 1021.9
20210804053218 67 46 1.0 5.0 0.00 0.00 0.00 66 1021.9
20210804051639 67 187 0.0 5.0 0.00 0.00 0.00 65 1021.6
20210804050136 67 39 3.0 10.0 0.00 0.00 0.00 66 1021.6
20210804044614 68 32 5.0 14.0 0.00 0.00 0.00 66 1021.3
20210804043028 67 335 5.0 13.0 0.00 0.00 0.00 66 1021.2
20210804041523 67 309 3.0 8.0 0.00 0.00 0.00 66 1021.3
20210804040112 67 40 4.0 11.0 0.00 0.00 0.00 66 1021.3
20210804034527 67 60 3.0 9.0 0.00 0.00 0.00 66 1021.1
20210804033022 67 285 3.0 11.0 0.00 0.00 0.00 66 1021.3
20210804030127 67 346 5.0 11.0 0.00 0.00 0.00 66 1021.3
20210804024544 67 302 6.0 18.0 0.00 0.00 0.00 66 1021.4
20210804023056 67 241 2.0 10.0 0.00 0.00 0.00 66 1021.5
20210804021547 67 289 2.0 8.0 0.00 0.00 0.00 66 1021.4
20210804020022 67 299 2.0 6.0 0.00 0.00 0.00 66 1021.6
20210804014509 67 64 2.0 9.0 0.00 0.00 0.00 66 1021.6
20210804013003 67 294 1.0 8.0 0.00 0.00 0.00 66 1021.6
20210804011746 66 5 5.0 10.0 0.00 0.00 0.00 67 1021.9
20210804010412 66 324 5.0 14.0 0.00 0.00 0.00 67 1021.8
20210804004644 67 19 3.0 11.0 0.00 0.00 0.00 67 1022.0
20210804003106 67 283 2.0 5.0 0.00 0.00 0.00 67 1022.0
20210804001614 66 28 3.0 10.0 0.00 0.00 0.00 67 1022.3
20210804000054 66 5 5.0 12.0 0.00 0.00 0.00 67 1022.4
20210803234544 67 44 2.0 10.0 0.00 0.00 0.00 67 1022.7
20210803233045 67 312 4.0 11.0 0.00 0.00 0.00 67 1022.4
20210803231547 67 5 5.0 13.0 0.00 0.00 0.00 66 1022.5
20210803230020 67 343 6.0 12.0 0.00 0.00 0.00 66 1022.5
20210803223144 67 30 4.0 14.0 0.00 0.00 0.00 65 1022.8
20210803221704 67 313 2.0 17.0 0.00 0.00 0.00 65 1022.8
20210803220227 67 95 2.0 13.0 0.00 0.00 0.00 64 1022.7
20210803214555 67 5 7.0 14.0 0.00 0.00 0.00 64 1022.8
20210803213037 67 313 1.0 15.0 0.00 0.00 0.00 64 1022.8
20210803211616 67 347 7.0 11.0 0.00 0.00 0.00 63 1022.6
20210803210057 67 52 4.0 13.0 0.00 0.00 0.00 64 1022.6
20210803204557 66 49 6.0 14.0 0.00 0.00 0.00 64 1022.6
20210803203010 66 32 5.0 17.0 0.00 0.00 0.00 63 1022.3
20210803201522 67 347 6.0 16.0 0.00 0.00 0.00 63 1022.1
20210803194602 67 30 9.0 19.0 0.00 0.00 0.00 61 1021.6
20210803193106 67 343 9.0 26.0 0.00 0.00 0.00 60 1021.4
20210803191653 68 46 15.0 26.0 0.00 0.00 0.00 60 1020.5
20210803190049 68 350 19.0 30.0 0.00 0.00 0.00 59 1020.0
20210803184703 68 49 19.0 31.0 0.00 0.00 0.00 59 1020.3
20210803183105 68 22 17.0 28.0 0.00 0.00 0.00 58 1020.5
20210803181526 68 346 22.0 34.0 0.00 0.00 0.00 57 1020.1
20210803174658 71 30 10.0 28.0 0.00 0.00 0.00 51 1020.3
20210803173151 72 32 16.0 25.0 0.00 0.00 0.00 48 1020.1
20210803171617 72 360 13.0 25.0 0.00 0.00 0.00 48 1020.0
20210803170253 72 360 12.0 26.0 0.00 0.00 0.00 46 1020.1
20210803164607 73 360 16.0 27.0 0.00 0.00 0.00 45 1020.3
20210803163205 75 299 10.0 25.0 0.00 0.00 0.00 36 1020.1
20210803161551 74 5 13.0 25.0 0.00 0.00 0.00 40 1020.3
20210803160041 74 23 13.0 26.0 0.00 0.00 0.00 45 1020.2
20210803154507 75 350 14.0 25.0 0.00 0.00 0.00 41 1020.4
20210803151708 75 32 13.0 27.0 0.00 0.00 0.00 40 1020.5
20210803150218 76 144 13.0 23.0 0.00 0.00 0.00 37 1020.3
20210803144615 76 355 9.0 19.0 0.00 0.00 0.00 40 1020.5
20210803143124 76 347 11.0 20.0 0.00 0.00 0.00 43 1020.6
20210803141549 76 63 12.0 20.0 0.00 0.00 0.00 45 1020.8
20210803140046 75 60 8.0 19.0 0.00 0.00 0.00 46 1020.7
20210803134541 76 324 10.0 20.0 0.00 0.00 0.00 46 1021.0
20210803133022 76 309 9.0 18.0 0.00 0.00 0.00 45 1020.9
20210803131508 76 317 6.0 14.0 0.00 0.00 0.00 45 1021.0
20210803124713 77 26 5.0 15.0 0.00 0.00 0.00 47 1021.1
20210803123214 76 305 6.0 14.0 0.00 0.00 0.00 48 1021.6
20210803121617 75 92 3.0 12.0 0.00 0.00 0.00 50 1021.5
20210803120153 74 314 6.0 17.0 0.00 0.00 0.00 50 1021.8
20210803114553 74 5 6.0 20.0 0.00 0.00 0.00 51 1021.6
20210803113046 75 5 8.0 19.0 0.00 0.00 0.00 50 1021.5
20210803111550 73 348 8.0 20.0 0.00 0.00 0.00 53 1021.5
20210803110025 73 19 8.0 20.0 0.00 0.00 0.00 53 1021.6
20210803104503 73 334 7.0 22.0 0.00 0.00 0.00 53 1021.8
20210803101654 69 254 2.0 10.0 0.00 0.00 0.00 60 1021.9
20210803100211 69 197 3.0 13.0 0.00 0.00 0.00 60 1022.1
20210803094614 71 355 3.0 17.0 0.00 0.00 0.00 57 1021.9
20210803093129 70 247 0.0 9.0 0.00 0.00 0.00 58 1021.9